This demonstration page uses our WeatherBlox Daily Observations layout. Learn more.

Left ArrowRight Arrow

34.74481, -87.66753

Hourly Observations for February 11, 2018

Temp ( °F °C ) Dew Point ( °F °C ) Humidity (%) Winds ( mph kmh ) Pressure ( in mb ) Visibility ( mi km ) Precip ( " mm )
12:04 am 00:04 Cloudy 59 15 57 13.9 93 93 S 3 6 29.85 1011 10 16 0.01 0.25
12:53 am 00:53 Cloudy 61 16.1 58 14.4 90 90 SSW 9 15 29.87 1011 10 16 0.01 0.25
1:53 am 01:53 Cloudy with Light Rain 62 16.7 59 15 90 90 SSW 8 13 29.86 1011 10 16 0.02 0.51
2:53 am 02:53 Cloudy 62 16.7 59 15 90 90 SSW 7 11 29.85 1011 10 16 0.00 0.03
3:10 am 03:10 Cloudy 62 16.7 59 15 90 90 SSW 8 13 29.83 1010 10 16 0.00 0.00
3:53 am 03:53 Cloudy 62 16.7 59 15 90 90 SSW 8 13 29.85 1011 10 16 0.00 0.00
4:53 am 04:53 Cloudy 63 17.2 58 14.4 84 84 SSW 8 13 29.86 1011 10 16 0.00 0.00
5:29 am 05:29 Cloudy 62 16.7 58 14.4 86 86 S 9 15 29.85 1011 10 16 0.00 0.00
5:53 am 05:53 Cloudy 62 16.7 58 14.4 86 86 S 9 15 29.87 1012 10 16 0.00 0.00
6:12 am 06:12 Cloudy 62 16.7 58 14.4 86 86 S 8 13 29.85 1011 10 16 0.00 0.00
6:53 am 06:53 Cloudy 62 16.7 58 14.4 86 86 S 7 11 29.88 1012 10 16 0.00 0.00
7:00 am 07:00 Cloudy 62 16.7 58 14.4 86 86 S 8 13 29.88 1012 10 16 0.00 0.00
7:44 am 07:44 Cloudy with Mist and Fog 62 16.7 59 15 90 90 S 8 13 29.88 1012 5 8 0.00 0.00
7:53 am 07:53 Cloudy with Mist and Fog 61 16.1 59 15 93 93 S 7 11 29.90 1013 3 5 0.00 0.00
8:20 am 08:20 Cloudy with Mist and Fog 62 16.7 59 15 90 90 S 9 15 29.88 1012 3 4 0.00 0.00
8:25 am 08:25 Cloudy with Mist and Fog 62 16.7 59 15 90 90 S 9 15 29.88 1012 3 4 0.00 0.00
8:36 am 08:36 Cloudy with Rain 62 16.7 59 15 90 90 S 8 13 29.88 1012 3 4 0.01 0.25
8:46 am 08:46 Cloudy with Light Rain 62 16.7 59 15 90 90 S 8 13 29.88 1012 3 4 0.03 0.76
8:53 am 08:53 Cloudy with Light Rain 62 16.7 59 15 90 90 S 9 15 29.91 1013 3 5 0.03 0.76
9:24 am 09:24 Cloudy with Mist and Fog 63 17.2 60 15.6 90 90 SSW 9 15 29.91 1013 2 3 0.01 0.25
9:35 am 09:35 Cloudy 63 17.2 60 15.6 90 90 SSW 9 15 29.91 1013 7 11 0.01 0.25
9:50 am 09:50 Cloudy with Light Rain 64 18 61 16 88 88 SW 12 19 29.91 1013 5 8 0.01 0.25
9:53 am 09:53 Cloudy 64 17.8 61 16.1 90 90 SW 10 17 29.92 1013 8 13 0.01 0.25
10:48 am 10:48 Cloudy 66 19 61 16 83 83 SW 13 20 29.91 1013 10 16 0.00 0.00
10:53 am 10:53 Cloudy 66 18.9 61 16.1 84 84 WSW 14 22 29.93 1014 10 16 0.00 0.00
11:19 am 11:19 Cloudy with Light Rain 63 17.2 58 14.4 84 84 WNW 16 26 29.91 1013 9 14 0.00 0.03
11:31 am 11:31 Cloudy with Light Rain 59 15 56 13.3 90 90 WNW 21 33 29.91 1013 10 16 0.00 0.03
11:40 am 11:40 Cloudy 58 14.4 54 12.2 87 87 WNW 15 24 29.97 1015 10 16 0.00 0.03
11:53 am 11:53 Cloudy 56 13.3 52 11.1 87 87 WNW 18 30 29.97 1015 10 16 0.00 0.03
12:33 pm 12:33 Cloudy 53 11.7 49 9.4 86 86 WNW 17 28 30.00 1016 10 16 0.01 0.25
12:41 pm 12:41 Cloudy 52 11.1 49 9.4 89 89 WNW 14 22 30.00 1016 10 16 0.01 0.25
12:53 pm 12:53 Cloudy 52 11.1 49 9.4 89 89 W 14 22 29.99 1016 10 16 0.01 0.25
1:53 pm 13:53 Cloudy 51 10.6 47 8.3 86 86 WNW 14 22 30.00 1016 10 16 0.00 0.00
2:53 pm 14:53 Cloudy 50 10 46 7.8 86 86 WNW 9 15 30.01 1016 10 16 0.00 0.00
3:02 pm 15:02 Cloudy 51 10.6 45 7.2 80 80 NW 8 13 30.03 1017 10 16 0.00 0.00
3:31 pm 15:31 Cloudy 50 10 44 6.7 80 80 NNW 8 13 30.03 1017 10 16 0.00 0.00
3:53 pm 15:53 Cloudy 50 10 44 6.7 80 80 NW 9 15 30.04 1017 10 16 0.00 0.00
4:08 pm 16:08 Cloudy 50 10 43 6.1 77 77 NW 10 17 30.03 1017 10 16 0.00 0.00
4:44 pm 16:44 Cloudy 48 8.9 41 5 77 77 NW 10 17 30.06 1018 10 16 0.00 0.00
4:53 pm 16:53 Cloudy 47 8.3 41 5 80 80 NNW 8 13 30.06 1018 10 16 0.00 0.00
5:53 pm 17:53 Cloudy 45 7.2 40 4.4 83 83 NNW 10 17 30.10 1019 10 16 0.00 0.00
6:53 pm 18:53 Cloudy 43 6.1 38 3.3 82 82 NNW 8 13 30.13 1020 10 16 0.00 0.00
7:22 pm 19:22 Cloudy 42 5.6 37 2.8 82 82 NNW 8 13 30.15 1021 10 16 0.00 0.00
7:53 pm 19:53 Cloudy 41 5 37 2.8 86 86 N 9 15 30.15 1021 10 16 0.00 0.00
8:50 pm 20:50 Cloudy 39 4 36 2 87 87 NNW 8 13 30.18 1022 10 16 0.00 0.00
8:53 pm 20:53 Cloudy 40 4.4 35 1.7 83 83 N 8 13 30.18 1022 10 16 0.00 0.00
9:16 pm 21:16 Cloudy 40 4.4 35 1.7 83 83 N 6 9 30.18 1022 10 16 0.00 0.00
9:53 pm 21:53 Cloudy 40 4.4 35 1.7 83 83 N 9 15 30.19 1023 10 16 0.00 0.00
10:53 pm 22:53 Cloudy 39 3.9 34 1.1 82 82 NNW 10 17 30.23 1024 10 16 0.00 0.00
11:53 pm 23:53 Cloudy 38 3.3 34 1.1 86 86 N 7 11 30.26 1025 10 16 0.00 0.00

Powered by AerisWeather